Year,Month,Day,Hour,Minute,Value (Times are PST for temperature in C)
2009,08,22,00,00,13.50
2009,08,22,00,01,13.40
2009,08,22,00,02,13.40
2009,08,22,00,03,13.40
2009,08,22,00,04,13.40
2009,08,22,00,05,13.30
2009,08,22,00,06,13.30
2009,08,22,00,07,13.30
2009,08,22,00,08,13.30
2009,08,22,00,09,13.20
2009,08,22,00,10,13.20
2009,08,22,00,11,13.20
2009,08,22,00,12,13.20
2009,08,22,00,13,13.20
2009,08,22,00,14,13.20
2009,08,22,00,15,13.20
2009,08,22,00,16,13.20
2009,08,22,00,17,13.20
2009,08,22,00,18,13.20
2009,08,22,00,19,13.10
2009,08,22,00,20,13.10
2009,08,22,00,21,13.10
2009,08,22,00,22,13.10
2009,08,22,00,23,13.10
2009,08,22,00,24,13.10
2009,08,22,00,25,13.10
2009,08,22,00,26,13.10
2009,08,22,00,27,13.10
2009,08,22,00,28,13.10
2009,08,22,00,29,13.00
2009,08,22,00,30,13.00
2009,08,22,00,31,13.00
2009,08,22,00,32,13.00
2009,08,22,00,33,12.90
2009,08,22,00,34,12.90
2009,08,22,00,35,12.90
2009,08,22,00,36,12.90
2009,08,22,00,37,12.90
2009,08,22,00,38,12.90
2009,08,22,00,39,12.90
2009,08,22,00,40,12.90
2009,08,22,00,41,12.90
2009,08,22,00,42,12.90
2009,08,22,00,43,12.90
2009,08,22,00,44,12.90
2009,08,22,00,45,12.90
2009,08,22,00,46,12.90
2009,08,22,00,47,12.90
2009,08,22,00,48,12.90
2009,08,22,00,49,12.90
2009,08,22,00,50,12.90
2009,08,22,00,51,12.90
2009,08,22,00,52,12.90
2009,08,22,00,53,12.90
2009,08,22,00,54,12.90
2009,08,22,00,55,12.90
2009,08,22,00,56,12.90
2009,08,22,00,57,12.90
2009,08,22,00,58,12.80
2009,08,22,00,59,12.80
2009,08,22,01,00,12.80
2009,08,22,01,01,12.80
2009,08,22,01,02,12.80
2009,08,22,01,03,12.80
2009,08,22,01,04,12.80
2009,08,22,01,05,12.80
2009,08,22,01,06,12.80
2009,08,22,01,07,12.80
2009,08,22,01,08,12.80
2009,08,22,01,09,12.80
2009,08,22,01,10,12.80
2009,08,22,01,11,12.80
2009,08,22,01,12,12.80
2009,08,22,01,13,12.80
2009,08,22,01,14,12.80
2009,08,22,01,15,12.80
2009,08,22,01,16,12.80
2009,08,22,01,17,12.80
2009,08,22,01,18,12.80
2009,08,22,01,19,12.80
2009,08,22,01,20,12.80
2009,08,22,01,21,12.80
2009,08,22,01,22,12.80
2009,08,22,01,23,12.80
2009,08,22,01,24,12.80
2009,08,22,01,25,12.80
2009,08,22,01,26,12.90
2009,08,22,01,27,12.90
2009,08,22,01,28,12.90
2009,08,22,01,29,12.90
2009,08,22,01,30,13.00
2009,08,22,01,31,13.00
2009,08,22,01,32,13.00
2009,08,22,01,33,13.00
2009,08,22,01,34,13.10
2009,08,22,01,35,13.10
2009,08,22,01,36,13.10
2009,08,22,01,37,13.10
2009,08,22,01,38,13.10
2009,08,22,01,39,13.10
2009,08,22,01,40,13.10
2009,08,22,01,41,13.10
2009,08,22,01,42,13.10
2009,08,22,01,43,13.10
2009,08,22,01,44,13.10
2009,08,22,01,45,13.10
2009,08,22,01,46,13.10
2009,08,22,01,47,13.10
2009,08,22,01,48,13.10
2009,08,22,01,49,13.10
2009,08,22,01,50,13.10
2009,08,22,01,51,13.10
2009,08,22,01,52,13.10
2009,08,22,01,53,13.20
2009,08,22,01,54,13.20
2009,08,22,01,55,13.20
2009,08,22,01,56,13.20
2009,08,22,01,57,13.20
2009,08,22,01,58,13.10
2009,08,22,01,59,13.10
2009,08,22,02,00,13.10
2009,08,22,02,01,13.10
2009,08,22,02,02,13.10
2009,08,22,02,03,13.10
2009,08,22,02,04,13.10
2009,08,22,02,05,13.10
2009,08,22,02,06,13.10
2009,08,22,02,07,13.10
2009,08,22,02,08,13.10
2009,08,22,02,09,13.10
2009,08,22,02,10,13.10
2009,08,22,02,11,13.10
2009,08,22,02,12,13.10
2009,08,22,02,13,13.00
2009,08,22,02,14,13.00
2009,08,22,02,15,13.00
2009,08,22,02,16,13.00
2009,08,22,02,17,13.00
2009,08,22,02,18,12.90
2009,08,22,02,19,12.90
2009,08,22,02,20,12.90
2009,08,22,02,21,12.90
2009,08,22,02,22,12.90
2009,08,22,02,23,12.90
2009,08,22,02,24,12.80
2009,08,22,02,25,12.80
2009,08,22,02,26,12.80
2009,08,22,02,27,12.80
2009,08,22,02,28,12.80
2009,08,22,02,29,12.70
2009,08,22,02,30,12.70
2009,08,22,02,31,12.70
2009,08,22,02,32,12.70
2009,08,22,02,33,12.70
2009,08,22,02,34,12.80
2009,08,22,02,35,12.80
2009,08,22,02,36,12.70
2009,08,22,02,37,12.70
2009,08,22,02,38,12.70
2009,08,22,02,39,12.70
2009,08,22,02,40,12.70
2009,08,22,02,41,12.70
2009,08,22,02,42,12.70
2009,08,22,02,43,12.80
2009,08,22,02,44,12.80
2009,08,22,02,45,12.80
2009,08,22,02,46,12.80
2009,08,22,02,47,12.90
2009,08,22,02,48,12.90
2009,08,22,02,49,12.90
2009,08,22,02,50,13.00
2009,08,22,02,51,13.00
2009,08,22,02,52,13.10
2009,08,22,02,53,13.10
2009,08,22,02,54,13.10
2009,08,22,02,55,13.10
2009,08,22,02,56,13.10
2009,08,22,02,57,13.10
2009,08,22,02,58,13.10
2009,08,22,02,59,13.20
2009,08,22,03,00,13.20
2009,08,22,03,01,13.20
2009,08,22,03,02,13.20
2009,08,22,03,03,13.20
2009,08,22,03,04,13.20
2009,08,22,03,05,13.20
2009,08,22,03,06,13.20
2009,08,22,03,07,13.10
2009,08,22,03,08,13.10
2009,08,22,03,09,13.10
2009,08,22,03,10,13.10
2009,08,22,03,11,13.10
2009,08,22,03,12,13.10
2009,08,22,03,13,13.00
2009,08,22,03,14,13.00
2009,08,22,03,15,13.00
2009,08,22,03,16,13.00
2009,08,22,03,17,13.00
2009,08,22,03,18,12.90
2009,08,22,03,19,12.90
2009,08,22,03,20,12.90
2009,08,22,03,21,12.90
2009,08,22,03,22,12.90
2009,08,22,03,23,12.90
2009,08,22,03,24,12.90
2009,08,22,03,25,12.80
2009,08,22,03,26,12.80
2009,08,22,03,27,12.80
2009,08,22,03,28,12.80
2009,08,22,03,29,12.80
2009,08,22,03,30,12.80
2009,08,22,03,31,12.80
2009,08,22,03,32,12.80
2009,08,22,03,33,12.80
2009,08,22,03,34,12.80
2009,08,22,03,35,12.70
2009,08,22,03,36,12.70
2009,08,22,03,37,12.70
2009,08,22,03,38,12.70
2009,08,22,03,39,12.70
2009,08,22,03,40,12.60
2009,08,22,03,41,12.60
2009,08,22,03,42,12.60
2009,08,22,03,43,12.60
2009,08,22,03,44,12.50
2009,08,22,03,45,12.50
2009,08,22,03,46,12.40
2009,08,22,03,47,12.40
2009,08,22,03,48,12.30
2009,08,22,03,49,12.20
2009,08,22,03,50,12.20
2009,08,22,03,51,12.10
2009,08,22,03,52,12.00
2009,08,22,03,53,11.90
2009,08,22,03,54,11.90
2009,08,22,03,55,11.80
2009,08,22,03,56,11.80
2009,08,22,03,57,11.70
2009,08,22,03,58,11.60
2009,08,22,03,59,11.60
2009,08,22,04,00,11.50
2009,08,22,04,01,11.50
2009,08,22,04,02,11.40
2009,08,22,04,03,11.40
2009,08,22,04,04,11.40
2009,08,22,04,05,11.40
2009,08,22,04,06,11.30
2009,08,22,04,07,11.30
2009,08,22,04,08,11.30
2009,08,22,04,09,11.30
2009,08,22,04,10,11.30
2009,08,22,04,11,11.20
2009,08,22,04,12,11.20
2009,08,22,04,13,11.20
2009,08,22,04,14,11.10
2009,08,22,04,15,11.10
2009,08,22,04,16,11.10
2009,08,22,04,17,11.10
2009,08,22,04,18,11.00
2009,08,22,04,19,11.00
2009,08,22,04,20,11.00
2009,08,22,04,21,11.00
2009,08,22,04,22,11.00
2009,08,22,04,23,11.00
2009,08,22,04,24,11.00
2009,08,22,04,25,11.00
2009,08,22,04,26,10.90
2009,08,22,04,27,10.90
2009,08,22,04,28,10.90
2009,08,22,04,29,10.90
2009,08,22,04,30,10.90
2009,08,22,04,31,10.80
2009,08,22,04,32,10.80
2009,08,22,04,33,10.80
2009,08,22,04,34,10.90
2009,08,22,04,35,10.90
2009,08,22,04,36,10.90
2009,08,22,04,37,11.00
2009,08,22,04,38,11.00
2009,08,22,04,39,11.00
2009,08,22,04,40,11.00
2009,08,22,04,41,11.00
2009,08,22,04,42,11.00
2009,08,22,04,43,10.90
2009,08,22,04,44,10.90
2009,08,22,04,45,10.90
2009,08,22,04,46,10.80
2009,08,22,04,47,10.80
2009,08,22,04,48,10.80
2009,08,22,04,49,10.80
2009,08,22,04,50,10.80
2009,08,22,04,51,10.70
2009,08,22,04,52,10.70
2009,08,22,04,53,10.70
2009,08,22,04,54,10.60
2009,08,22,04,55,10.60
2009,08,22,04,56,10.60
2009,08,22,04,57,10.50
2009,08,22,04,58,10.50
2009,08,22,04,59,10.40
2009,08,22,05,00,10.40
2009,08,22,05,01,10.40
2009,08,22,05,02,10.40
2009,08,22,05,03,10.30
2009,08,22,05,04,10.30
2009,08,22,05,05,10.30
2009,08,22,05,06,10.30
2009,08,22,05,07,10.30
2009,08,22,05,08,10.20
2009,08,22,05,09,10.20
2009,08,22,05,10,10.20
2009,08,22,05,11,10.20
2009,08,22,05,12,10.20
2009,08,22,05,13,10.10
2009,08,22,05,14,10.10
2009,08,22,05,15,10.10
2009,08,22,05,16,10.10
2009,08,22,05,17,10.00
2009,08,22,05,18,10.00
2009,08,22,05,19,10.00
2009,08,22,05,20,10.00
2009,08,22,05,21,9.90
2009,08,22,05,22,9.90
2009,08,22,05,23,9.90
2009,08,22,05,24,9.90
2009,08,22,05,25,9.90
2009,08,22,05,26,9.80
2009,08,22,05,27,9.80
2009,08,22,05,28,9.80
2009,08,22,05,29,9.80
2009,08,22,05,30,9.80
2009,08,22,05,31,9.80
2009,08,22,05,32,9.70
2009,08,22,05,33,9.70
2009,08,22,05,34,9.70
2009,08,22,05,35,9.70
2009,08,22,05,36,9.70
2009,08,22,05,37,9.60
2009,08,22,05,38,9.60
2009,08,22,05,39,9.60
2009,08,22,05,40,9.60
2009,08,22,05,41,9.60
2009,08,22,05,42,9.60
2009,08,22,05,43,9.60
2009,08,22,05,44,9.60
2009,08,22,05,45,9.60
2009,08,22,05,46,9.60
2009,08,22,05,47,9.60
2009,08,22,05,48,9.60
2009,08,22,05,49,9.60
2009,08,22,05,50,9.60
2009,08,22,05,51,9.60
2009,08,22,05,52,9.50
2009,08,22,05,53,9.50
2009,08,22,05,54,9.50
2009,08,22,05,55,9.50
2009,08,22,05,56,9.50
2009,08,22,05,57,9.50
2009,08,22,05,58,9.40
2009,08,22,05,59,9.40
2009,08,22,06,00,9.40
2009,08,22,06,01,9.40
2009,08,22,06,02,9.40
2009,08,22,06,03,9.40
2009,08,22,06,04,9.40
2009,08,22,06,05,9.30
2009,08,22,06,06,9.30
2009,08,22,06,07,9.30
2009,08,22,06,08,9.30
2009,08,22,06,09,9.30
2009,08,22,06,10,9.30
2009,08,22,06,11,9.30
2009,08,22,06,12,9.30
2009,08,22,06,13,9.30
2009,08,22,06,14,9.30
2009,08,22,06,15,9.30
2009,08,22,06,16,9.30
2009,08,22,06,17,9.20
2009,08,22,06,18,9.20
2009,08,22,06,19,9.20
2009,08,22,06,20,9.20
2009,08,22,06,21,9.20
2009,08,22,06,22,9.20
2009,08,22,06,23,9.10
2009,08,22,06,24,9.10
2009,08,22,06,25,9.10
2009,08,22,06,26,9.10
2009,08,22,06,27,9.10
2009,08,22,06,28,9.10
2009,08,22,06,29,9.10
2009,08,22,06,30,9.10
2009,08,22,06,31,9.10
2009,08,22,06,32,9.00
2009,08,22,06,33,9.00
2009,08,22,06,34,9.00
2009,08,22,06,35,9.00
2009,08,22,06,36,9.00
2009,08,22,06,37,9.00
2009,08,22,06,38,8.90
2009,08,22,06,39,8.90
2009,08,22,06,40,8.90
2009,08,22,06,41,8.90
2009,08,22,06,42,9.00
2009,08,22,06,43,9.00
2009,08,22,06,44,9.00
2009,08,22,06,45,9.00
2009,08,22,06,46,9.00
2009,08,22,06,47,9.10
2009,08,22,06,48,9.10
2009,08,22,06,49,9.10
2009,08,22,06,50,9.10
2009,08,22,06,51,9.10
2009,08,22,06,52,9.10
2009,08,22,06,53,9.20
2009,08,22,06,54,9.20
2009,08,22,06,55,9.20
2009,08,22,06,56,9.30
2009,08,22,06,57,9.30
2009,08,22,06,58,9.30
2009,08,22,06,59,9.30
2009,08,22,07,00,9.40
2009,08,22,07,01,9.40
2009,08,22,07,02,9.50
2009,08,22,07,03,9.50
2009,08,22,07,04,9.60
2009,08,22,07,05,9.70
2009,08,22,07,06,9.80
2009,08,22,07,07,9.80
2009,08,22,07,08,9.90
2009,08,22,07,09,9.90
2009,08,22,07,10,10.00
2009,08,22,07,11,10.00
2009,08,22,07,12,10.00
2009,08,22,07,13,10.10
2009,08,22,07,14,10.10
2009,08,22,07,15,10.10
2009,08,22,07,16,10.10
2009,08,22,07,17,10.20
2009,08,22,07,18,10.20
2009,08,22,07,19,10.20
2009,08,22,07,20,10.30
2009,08,22,07,21,10.30
2009,08,22,07,22,10.30
2009,08,22,07,23,10.30
2009,08,22,07,24,10.30
2009,08,22,07,25,10.30
2009,08,22,07,26,10.40
2009,08,22,07,27,10.40
2009,08,22,07,28,10.50
2009,08,22,07,29,10.50
2009,08,22,07,30,10.60
2009,08,22,07,31,10.70
2009,08,22,07,32,10.70
2009,08,22,07,33,10.80
2009,08,22,07,34,10.90
2009,08,22,07,35,10.90
2009,08,22,07,36,11.00
2009,08,22,07,37,11.10
2009,08,22,07,38,11.20
2009,08,22,07,39,11.20
2009,08,22,07,40,11.30
2009,08,22,07,41,11.40
2009,08,22,07,42,11.50
2009,08,22,07,43,11.60
2009,08,22,07,44,11.70
2009,08,22,07,45,11.70
2009,08,22,07,46,11.80
2009,08,22,07,47,11.90
2009,08,22,07,48,12.00
2009,08,22,07,49,12.10
2009,08,22,07,50,12.20
2009,08,22,07,51,12.20
2009,08,22,07,52,12.30
2009,08,22,07,53,12.40
2009,08,22,07,54,12.50
2009,08,22,07,55,12.50
2009,08,22,07,56,12.60
2009,08,22,07,57,12.70
2009,08,22,07,58,12.70
2009,08,22,07,59,12.70
2009,08,22,08,00,12.70
2009,08,22,08,01,12.80
2009,08,22,08,02,12.80
2009,08,22,08,03,12.80
2009,08,22,08,04,12.90
2009,08,22,08,05,13.00
2009,08,22,08,06,13.00
2009,08,22,08,07,13.10
2009,08,22,08,08,13.20
2009,08,22,08,09,13.20
2009,08,22,08,10,13.30
2009,08,22,08,11,13.30
2009,08,22,08,12,13.30
2009,08,22,08,13,13.40
2009,08,22,08,14,13.40
2009,08,22,08,15,13.50
2009,08,22,08,16,13.50
2009,08,22,08,17,13.60
2009,08,22,08,18,13.70
2009,08,22,08,19,13.70
2009,08,22,08,20,13.90
2009,08,22,08,21,13.90
2009,08,22,08,22,14.10
2009,08,22,08,23,14.20
2009,08,22,08,24,14.30
2009,08,22,08,25,14.40
2009,08,22,08,26,14.50
2009,08,22,08,27,14.60
2009,08,22,08,28,14.70
2009,08,22,08,29,14.80
2009,08,22,08,30,14.80
2009,08,22,08,31,14.90
2009,08,22,08,32,15.00
2009,08,22,08,33,15.00
2009,08,22,08,34,15.10
2009,08,22,08,35,15.20
2009,08,22,08,36,15.30
2009,08,22,08,37,15.30
2009,08,22,08,38,15.40
2009,08,22,08,39,15.50
2009,08,22,08,40,15.60
2009,08,22,08,41,15.80
2009,08,22,08,42,15.90
2009,08,22,08,43,16.10
2009,08,22,08,44,16.20
2009,08,22,08,45,16.30
2009,08,22,08,46,16.40
2009,08,22,08,47,16.50
2009,08,22,08,48,16.60
2009,08,22,08,49,16.60
2009,08,22,08,50,16.60
2009,08,22,08,51,16.60
2009,08,22,08,52,16.70
2009,08,22,08,53,16.70
2009,08,22,08,54,16.70
2009,08,22,08,55,16.80
2009,08,22,08,56,16.80
2009,08,22,08,57,16.90
2009,08,22,08,58,16.90
2009,08,22,08,59,16.90
2009,08,22,09,00,16.90
2009,08,22,09,01,16.90
2009,08,22,09,02,16.90
2009,08,22,09,03,16.90
2009,08,22,09,04,16.90
2009,08,22,09,05,16.90
2009,08,22,09,06,16.90
2009,08,22,09,07,16.90
2009,08,22,09,08,16.80
2009,08,22,09,09,16.80
2009,08,22,09,10,16.80
2009,08,22,09,11,16.80
2009,08,22,09,12,16.70
2009,08,22,09,13,16.70
2009,08,22,09,14,16.70
2009,08,22,09,15,16.70
2009,08,22,09,16,16.80
2009,08,22,09,17,16.70
2009,08,22,09,18,16.70
2009,08,22,09,19,16.80
2009,08,22,09,20,16.80
2009,08,22,09,21,16.80
2009,08,22,09,22,16.90
2009,08,22,09,23,16.90
2009,08,22,09,24,16.90
2009,08,22,09,25,16.90
2009,08,22,09,26,16.90
2009,08,22,09,27,16.90
2009,08,22,09,28,16.90
2009,08,22,09,29,16.90
2009,08,22,09,30,16.90
2009,08,22,09,31,16.90
2009,08,22,09,32,17.00
2009,08,22,09,33,17.00
2009,08,22,09,34,17.00
2009,08,22,09,35,17.00
2009,08,22,09,36,17.00
2009,08,22,09,37,17.10
2009,08,22,09,38,17.10
2009,08,22,09,39,17.10
2009,08,22,09,40,17.10
2009,08,22,09,41,17.10
2009,08,22,09,42,17.10
2009,08,22,09,43,17.10
2009,08,22,09,44,17.10
2009,08,22,09,45,17.20
2009,08,22,09,46,17.20
2009,08,22,09,47,17.20
2009,08,22,09,48,17.30
2009,08,22,09,49,17.30
2009,08,22,09,50,17.40
2009,08,22,09,51,17.40
2009,08,22,09,52,17.50
2009,08,22,09,53,17.50
2009,08,22,09,54,17.50
2009,08,22,09,55,17.50
2009,08,22,09,56,17.50
2009,08,22,09,57,17.60
2009,08,22,09,58,17.60
2009,08,22,09,59,17.60
2009,08,22,10,00,17.70
2009,08,22,10,01,17.70
2009,08,22,10,02,17.70
2009,08,22,10,03,17.70
2009,08,22,10,04,17.70
2009,08,22,10,05,17.70
2009,08,22,10,06,17.70
2009,08,22,10,07,17.60
2009,08,22,10,08,17.50
2009,08,22,10,09,17.50
2009,08,22,10,10,17.40
2009,08,22,10,11,17.40
2009,08,22,10,12,17.30
2009,08,22,10,13,17.30
2009,08,22,10,14,17.30
2009,08,22,10,15,17.40
2009,08,22,10,16,17.40
2009,08,22,10,17,17.50
2009,08,22,10,18,17.60
2009,08,22,10,19,17.60
2009,08,22,10,20,17.70
2009,08,22,10,21,17.70
2009,08,22,10,22,17.80
2009,08,22,10,23,17.80
2009,08,22,10,24,17.80
2009,08,22,10,25,17.80
2009,08,22,10,26,17.80
2009,08,22,10,27,17.80
2009,08,22,10,28,17.80
2009,08,22,10,29,17.80
2009,08,22,10,30,17.80
2009,08,22,10,31,17.70
2009,08,22,10,32,17.70
2009,08,22,10,33,17.70
2009,08,22,10,34,17.70
2009,08,22,10,35,17.70
2009,08,22,10,36,17.70
2009,08,22,10,37,17.70
2009,08,22,10,38,17.70
2009,08,22,10,39,17.80
2009,08,22,10,40,17.90
2009,08,22,10,41,18.00
2009,08,22,10,42,18.10
2009,08,22,10,43,18.10
2009,08,22,10,44,18.10
2009,08,22,10,45,18.10
2009,08,22,10,46,18.10
2009,08,22,10,47,18.10
2009,08,22,10,48,18.10
2009,08,22,10,49,18.20
2009,08,22,10,50,18.20
2009,08,22,10,51,18.20
2009,08,22,10,52,18.30
2009,08,22,10,53,18.30
2009,08,22,10,54,18.40
2009,08,22,10,55,18.40
2009,08,22,10,56,18.50
2009,08,22,10,57,18.60
2009,08,22,10,58,18.70
2009,08,22,10,59,18.70
2009,08,22,11,00,18.80
2009,08,22,11,01,18.80
2009,08,22,11,02,18.80
2009,08,22,11,03,18.80
2009,08,22,11,04,18.80
2009,08,22,11,05,18.80
2009,08,22,11,06,18.80
2009,08,22,11,07,18.80
2009,08,22,11,08,18.80
2009,08,22,11,09,18.90
2009,08,22,11,10,18.90
2009,08,22,11,11,19.00
2009,08,22,11,12,19.00
2009,08,22,11,13,18.80
2009,08,22,11,14,18.70
2009,08,22,11,15,18.60
2009,08,22,11,16,18.60
2009,08,22,11,17,18.60
2009,08,22,11,18,18.60
2009,08,22,11,19,18.70
2009,08,22,11,20,18.80
2009,08,22,11,21,18.90
2009,08,22,11,22,18.90
2009,08,22,11,23,18.90
2009,08,22,11,24,18.90
2009,08,22,11,25,18.80
2009,08,22,11,26,18.70
2009,08,22,11,27,18.70
2009,08,22,11,28,18.80
2009,08,22,11,29,18.80
2009,08,22,11,30,18.80
2009,08,22,11,31,18.80
2009,08,22,11,32,18.80
2009,08,22,11,33,18.90
2009,08,22,11,34,18.90
2009,08,22,11,35,18.90
2009,08,22,11,36,19.00
2009,08,22,11,37,19.10
2009,08,22,11,38,19.00
2009,08,22,11,39,19.00
2009,08,22,11,40,19.00
2009,08,22,11,41,19.00
2009,08,22,11,42,19.10
2009,08,22,11,43,19.10
2009,08,22,11,44,19.00
2009,08,22,11,45,18.90
2009,08,22,11,46,18.80
2009,08,22,11,47,18.80
2009,08,22,11,48,18.80
2009,08,22,11,49,18.80
2009,08,22,11,50,18.70
2009,08,22,11,51,18.70
2009,08,22,11,52,18.70
2009,08,22,11,53,18.70
2009,08,22,11,54,18.70
2009,08,22,11,55,18.70
2009,08,22,11,56,18.70
2009,08,22,11,57,18.80
2009,08,22,11,58,18.90
2009,08,22,11,59,19.00
2009,08,22,12,00,19.00
2009,08,22,12,01,19.10
2009,08,22,12,02,19.30
2009,08,22,12,03,19.30
2009,08,22,12,04,19.20
2009,08,22,12,05,19.20
2009,08,22,12,06,19.20
2009,08,22,12,07,19.20
2009,08,22,12,08,19.30
2009,08,22,12,09,19.30
2009,08,22,12,10,19.20
2009,08,22,12,11,19.20
2009,08,22,12,12,19.10
2009,08,22,12,13,19.10
2009,08,22,12,14,19.10
2009,08,22,12,15,19.20
2009,08,22,12,16,19.20
2009,08,22,12,17,19.30
2009,08,22,12,18,19.30
2009,08,22,12,19,19.40
2009,08,22,12,20,19.40
2009,08,22,12,21,19.30
2009,08,22,12,22,19.30
2009,08,22,12,23,19.10
2009,08,22,12,24,19.00
2009,08,22,12,25,19.00
2009,08,22,12,26,19.00
2009,08,22,12,27,19.10
2009,08,22,12,28,19.20
2009,08,22,12,29,19.30
2009,08,22,12,30,19.40
2009,08,22,12,31,19.40
2009,08,22,12,32,19.50
2009,08,22,12,33,19.50
2009,08,22,12,34,19.60
2009,08,22,12,35,19.70
2009,08,22,12,36,19.80
2009,08,22,12,37,19.80
2009,08,22,12,38,19.80
2009,08,22,12,39,19.80
2009,08,22,12,40,19.70
2009,08,22,12,41,19.70
2009,08,22,12,42,19.80
2009,08,22,12,43,19.80
2009,08,22,12,44,19.80
2009,08,22,12,45,19.70
2009,08,22,12,46,19.60
2009,08,22,12,47,19.60
2009,08,22,12,48,19.50
2009,08,22,12,49,19.50
2009,08,22,12,50,19.40
2009,08,22,12,51,19.40
2009,08,22,12,52,19.50
2009,08,22,12,53,19.50
2009,08,22,12,54,19.60
2009,08,22,12,55,19.60
2009,08,22,12,56,19.60
2009,08,22,12,57,19.50
2009,08,22,12,58,19.50
2009,08,22,12,59,19.50
2009,08,22,13,00,19.40
2009,08,22,13,01,19.40
2009,08,22,13,02,19.40
2009,08,22,13,03,19.40
2009,08,22,13,04,19.30
2009,08,22,13,05,19.30
2009,08,22,13,06,19.30
2009,08,22,13,07,19.40
2009,08,22,13,08,19.40
2009,08,22,13,09,19.50
2009,08,22,13,10,19.60
2009,08,22,13,11,19.70
2009,08,22,13,12,19.80
2009,08,22,13,13,19.90
2009,08,22,13,14,20.00
2009,08,22,13,15,20.00
2009,08,22,13,16,20.00
2009,08,22,13,17,20.10
2009,08,22,13,18,20.10
2009,08,22,13,19,20.10
2009,08,22,13,20,20.20
2009,08,22,13,21,20.20
2009,08,22,13,22,20.20
2009,08,22,13,23,20.20
2009,08,22,13,24,20.20
2009,08,22,13,25,20.30
2009,08,22,13,26,20.40
2009,08,22,13,27,20.40
2009,08,22,13,28,20.40
2009,08,22,13,29,20.40
2009,08,22,13,30,20.50
2009,08,22,13,31,20.50
2009,08,22,13,32,20.40
2009,08,22,13,33,20.40
2009,08,22,13,34,20.30
2009,08,22,13,35,20.20
2009,08,22,13,36,20.20
2009,08,22,13,37,20.20
2009,08,22,13,38,20.10
2009,08,22,13,39,20.10
2009,08,22,13,40,20.10
2009,08,22,13,41,20.10
2009,08,22,13,42,20.10
2009,08,22,13,43,20.00
2009,08,22,13,44,20.00
2009,08,22,13,45,20.00
2009,08,22,13,46,20.10
2009,08,22,13,47,20.10
2009,08,22,13,48,20.10
2009,08,22,13,49,20.10
2009,08,22,13,50,20.10
2009,08,22,13,51,20.10
2009,08,22,13,52,20.10
2009,08,22,13,53,20.20
2009,08,22,13,54,20.10
2009,08,22,13,55,20.10
2009,08,22,13,56,20.20
2009,08,22,13,57,20.20
2009,08,22,13,58,20.20
2009,08,22,13,59,20.20
2009,08,22,14,00,20.30
2009,08,22,14,01,20.30
2009,08,22,14,02,20.20
2009,08,22,14,03,20.20
2009,08,22,14,04,20.20
2009,08,22,14,05,20.10
2009,08,22,14,06,20.10
2009,08,22,14,07,20.10
2009,08,22,14,08,20.10
2009,08,22,14,09,20.10
2009,08,22,14,10,20.10
2009,08,22,14,11,20.10
2009,08,22,14,12,20.10
2009,08,22,14,13,20.10
2009,08,22,14,14,20.10
2009,08,22,14,15,20.20
2009,08,22,14,16,20.30
2009,08,22,14,17,20.40
2009,08,22,14,18,20.50
2009,08,22,14,19,20.70
2009,08,22,14,20,20.70
2009,08,22,14,21,20.80
2009,08,22,14,22,20.80
2009,08,22,14,23,20.90
2009,08,22,14,24,21.00
2009,08,22,14,25,21.10
2009,08,22,14,26,21.20
2009,08,22,14,27,21.30
2009,08,22,14,28,21.30
2009,08,22,14,29,21.40
2009,08,22,14,30,21.40
2009,08,22,14,31,21.40
2009,08,22,14,32,21.40
2009,08,22,14,33,21.30
2009,08,22,14,34,21.20
2009,08,22,14,35,21.30
2009,08,22,14,36,21.30
2009,08,22,14,37,21.40
2009,08,22,14,38,21.50
2009,08,22,14,39,21.60
2009,08,22,14,40,21.60
2009,08,22,14,41,21.50
2009,08,22,14,42,21.40
2009,08,22,14,43,21.40
2009,08,22,14,44,21.40
2009,08,22,14,45,21.40
2009,08,22,14,46,21.40
2009,08,22,14,47,21.40
2009,08,22,14,48,21.50
2009,08,22,14,49,21.60
2009,08,22,14,50,21.70
2009,08,22,14,51,21.80
2009,08,22,14,52,21.70
2009,08,22,14,53,21.70
2009,08,22,14,54,21.50
2009,08,22,14,55,21.40
2009,08,22,14,56,21.30
2009,08,22,14,57,21.20
2009,08,22,14,58,21.10
2009,08,22,14,59,21.10
2009,08,22,15,00,21.10
2009,08,22,15,01,21.10
2009,08,22,15,02,21.10
2009,08,22,15,03,21.10
2009,08,22,15,04,21.10
2009,08,22,15,05,21.10
2009,08,22,15,06,21.20
2009,08,22,15,07,21.20
2009,08,22,15,08,21.20
2009,08,22,15,09,21.20
2009,08,22,15,10,21.30
2009,08,22,15,11,21.40
2009,08,22,15,12,21.50
2009,08,22,15,13,21.60
2009,08,22,15,14,21.60
2009,08,22,15,15,21.60
2009,08,22,15,16,21.60
2009,08,22,15,17,21.60
2009,08,22,15,18,21.50
2009,08,22,15,19,21.50
2009,08,22,15,20,21.40
2009,08,22,15,21,21.30
2009,08,22,15,22,21.20
2009,08,22,15,23,21.20
2009,08,22,15,24,21.20
2009,08,22,15,25,21.30
2009,08,22,15,26,21.30
2009,08,22,15,27,21.30
2009,08,22,15,28,21.40
2009,08,22,15,29,21.50
2009,08,22,15,30,21.60
2009,08,22,15,31,21.60
2009,08,22,15,32,21.60
2009,08,22,15,33,21.60
2009,08,22,15,34,21.70
2009,08,22,15,35,21.70
2009,08,22,15,36,21.70
2009,08,22,15,37,21.80
2009,08,22,15,38,21.80
2009,08,22,15,39,21.80
2009,08,22,15,40,21.80
2009,08,22,15,41,21.70
2009,08,22,15,42,21.60
2009,08,22,15,43,21.50
2009,08,22,15,44,21.50
2009,08,22,15,45,21.40
2009,08,22,15,46,21.30
2009,08,22,15,47,21.30
2009,08,22,15,48,21.30
2009,08,22,15,49,21.40
2009,08,22,15,50,21.40
2009,08,22,15,51,21.40
2009,08,22,15,52,21.50
2009,08,22,15,53,21.60
2009,08,22,15,54,21.70
2009,08,22,15,55,21.80
2009,08,22,15,56,21.80
2009,08,22,15,57,21.60
2009,08,22,15,58,21.50
2009,08,22,15,59,21.40
2009,08,22,16,00,21.40
2009,08,22,16,01,21.40
2009,08,22,16,02,21.40
2009,08,22,16,03,21.40
2009,08,22,16,04,21.40
2009,08,22,16,05,21.50
2009,08,22,16,06,21.50
2009,08,22,16,07,21.50
2009,08,22,16,08,21.70
2009,08,22,16,09,21.80
2009,08,22,16,10,21.80
2009,08,22,16,11,21.90
2009,08,22,16,12,21.90
2009,08,22,16,13,21.90
2009,08,22,16,14,21.90
2009,08,22,16,15,21.90
2009,08,22,16,16,21.90
2009,08,22,16,17,21.90
2009,08,22,16,18,21.90
2009,08,22,16,19,21.90
2009,08,22,16,20,21.80
2009,08,22,16,21,21.80
2009,08,22,16,22,21.70
2009,08,22,16,23,21.70
2009,08,22,16,24,21.70
2009,08,22,16,25,21.70
2009,08,22,16,26,21.80
2009,08,22,16,27,21.70
2009,08,22,16,28,21.70
2009,08,22,16,29,21.70
2009,08,22,16,30,21.60
2009,08,22,16,31,21.60
2009,08,22,16,32,21.60
2009,08,22,16,33,21.60
2009,08,22,16,34,21.70
2009,08,22,16,35,21.80
2009,08,22,16,36,21.80
2009,08,22,16,37,21.80
2009,08,22,16,38,21.80
2009,08,22,16,39,21.80
2009,08,22,16,40,21.80
2009,08,22,16,41,21.80
2009,08,22,16,42,21.80
2009,08,22,16,43,21.80
2009,08,22,16,44,21.90
2009,08,22,16,45,21.90
2009,08,22,16,46,21.90
2009,08,22,16,47,22.00
2009,08,22,16,48,22.00
2009,08,22,16,49,21.90
2009,08,22,16,50,21.80
2009,08,22,16,51,21.80
2009,08,22,16,52,21.80
2009,08,22,16,53,21.80
2009,08,22,16,54,21.80
2009,08,22,16,55,21.70
2009,08,22,16,56,21.70
2009,08,22,16,57,21.60
2009,08,22,16,58,21.60
2009,08,22,16,59,21.50
2009,08,22,17,00,21.40
2009,08,22,17,01,21.30
2009,08,22,17,02,21.20
2009,08,22,17,03,21.00
2009,08,22,17,04,20.90
2009,08,22,17,05,20.90
2009,08,22,17,06,20.90
2009,08,22,17,07,20.90
2009,08,22,17,08,20.90
2009,08,22,17,09,20.90
2009,08,22,17,10,20.90
2009,08,22,17,11,20.90
2009,08,22,17,12,20.90
2009,08,22,17,13,20.90
2009,08,22,17,14,20.90
2009,08,22,17,15,20.90
2009,08,22,17,16,20.90
2009,08,22,17,17,20.90
2009,08,22,17,18,20.80
2009,08,22,17,19,20.80
2009,08,22,17,20,20.70
2009,08,22,17,21,20.70
2009,08,22,17,22,20.70
2009,08,22,17,23,20.70
2009,08,22,17,24,20.70